Tracking 20628 objects as of 6-Apr-2020
HD Live streaming from Space Station
objects crossing your sky now

COSMOS 2353

Track COSMOS 2353 now!
10-day predictions
COSMOS 2353 is classified as:


NORAD ID: 25364
Int'l Code: 1998-036B
Perigee: 1,309.3 km
Apogee: 1,874.4 km
Inclination: 82.6 °
Period: 117.9 minutes
Semi major axis: 7962 km
RCS: 0.979 m2 (medium)
Launch date: June 15, 1998
Source: Commonwealth of Independent States (former USSR) (CIS)
Launch site: PLESETSK MISSILE AND SPACE COMPLEX (PKMTR)

Satellites have a single simultaneous earth-space and space-earth channel.
aabbcc
Your satellite tracking list
Your tracking list is empty




NASA's NSSDC Master Catalog

Two Line Element Set (TLE):
1 25364U 98036B   20096.91746740 +.00000019 +00000-0 +95573-4 0  9994
2 25364 082.5888 240.9630 0354808 278.0141 078.0815 12.21803908972636
Source of the keplerian elements: AFSPC